Coraopolis, PA

1:57 PM EST on December 02, 2016 (GMT -0500)
Pittsburgh International

Weather History for KPIT - February, 2014

Change the Weather History Date:

Monday, February 24, 2014

  Actual Average Record
Temperature  
Mean Temperature 28 °F 33 °F  
Max Temperature 33 °F 41 °F 70 °F (1906)
Min Temperature 22 °F 24 °F -9 °F (2015)
Degree Days  
Heating Degree Days 37 32  
Month to date heating degree days 906 791  
Since 1 July heating degree days 4343 4100  
Cooling Degree Days 0 0  
Month to date cooling degree days 0 0  
Year to date cooling degree days 0 0  
Moisture  
Dew Point 9 °F    
Average Humidity 48    
Maximum Humidity 63    
Minimum Humidity 33    
Precipitation  
Precipitation T in 0.09 in 1.72 in (1930)
Month to date precipitation 2.22 1.96  
Year to date precipitation 4.40 4.66  
Snow  
Snow 0.00 in 0.40 in 6.50 in (1914)
Month to date snowfall 15.2 8.4  
Since 1 July snowfall 57.5 30.9  
Snow Depth 0.00 in    
Sea Level Pressure  
Sea Level Pressure 30.13 in    
Wind  
Wind Speed 12 mph (West)    
Max Wind Speed 26 mph    
Max Gust Speed 36 mph    
Visibility 10 miles    
Events      
T = Trace of Precipitation, MM = Missing Value Source: NWS Daily Summary

Daily Weather History Graph

Daily Weather History Graph

Search for Another Location

Airport or City:

Trip Planner

Search our weather history database for the weather conditions in past years. The results will help you decide how hot, cold, wet, or windy it might be!

Date:

Astronomy

Feb. 24, 2014 Rise Set
Actual Time 7:02 AM EST 6:06 PM EST
Civil Twilight 6:34 AM EST 6:34 PM EST
Nautical Twilight 6:02 AM EST 7:05 PM EST
Astronomical Twilight 5:31 AM EST 7:37 PM EST
Moon 2:59 AM EST (2/24) 1:05 PM EST (2/24)
Length of Visible Light 11h 59m
Length of Day
11h 04m
Waning Crescent, 28% of the Moon is Illuminated
Feb 24
Waning Crescent
Mar 1
New
Mar 8
First Quarter
Mar 16
Full
Mar 23
Last Quarter

Hourly Weather History & Observations

Time (EST) Temp. Windchill Dew Point Humidity Pressure Visibility Wind Dir Wind Speed Gust Speed Precip Events Conditions
12:51 AM 27.0 °F 16.7 °F 15.1 °F 61% 30.08 in 10.0 mi WNW 11.5 mph - N/A   Mostly Cloudy
1:51 AM 25.0 °F 13.6 °F 12.0 °F 58% 30.09 in 10.0 mi West 12.7 mph 18.4 mph N/A   Scattered Clouds
2:51 AM 24.1 °F 17.0 °F 9.0 °F 53% 30.09 in 10.0 mi West 5.8 mph - N/A   Scattered Clouds
3:51 AM 23.0 °F 13.1 °F 10.0 °F 58% 30.08 in 10.0 mi West 9.2 mph - N/A   Scattered Clouds
4:51 AM 23.0 °F 15.8 °F 10.0 °F 58% 30.09 in 10.0 mi WSW 5.8 mph - N/A   Mostly Cloudy
5:51 AM 23.0 °F 13.9 °F 10.0 °F 58% 30.09 in 10.0 mi West 8.1 mph - N/A   Scattered Clouds
6:51 AM 23.0 °F 15.8 °F 10.9 °F 60% 30.10 in 10.0 mi West 5.8 mph - N/A   Mostly Cloudy
7:51 AM 23.0 °F 12.4 °F 10.9 °F 60% 30.12 in 10.0 mi West 10.4 mph - N/A   Mostly Cloudy
8:51 AM 24.1 °F 11.0 °F 12.0 °F 60% 30.14 in 10.0 mi West 16.1 mph 21.9 mph 0.00 in   Scattered Clouds
9:51 AM 25.0 °F 12.6 °F 10.9 °F 55% 30.14 in 10.0 mi West 15.0 mph 23.0 mph N/A   Mostly Cloudy
10:51 AM 25.0 °F 13.6 °F 10.9 °F 55% 30.14 in 10.0 mi West 12.7 mph 24.2 mph N/A   Mostly Cloudy
11:51 AM 27.0 °F 15.2 °F 10.9 °F 51% 30.15 in 10.0 mi WSW 15.0 mph 21.9 mph N/A   Mostly Cloudy
12:51 PM 28.9 °F 16.1 °F 10.0 °F 45% 30.13 in 10.0 mi West 19.6 mph 26.5 mph N/A   Mostly Cloudy
1:51 PM 30.9 °F 19.4 °F 10.0 °F 42% 30.12 in 10.0 mi West 17.3 mph 27.6 mph N/A   Scattered Clouds
2:51 PM 32.0 °F 19.8 °F 10.0 °F 40% 30.13 in 10.0 mi WNW 20.7 mph 29.9 mph N/A   Scattered Clouds
3:51 PM 32.0 °F 20.1 °F 7.0 °F 35% 30.14 in 10.0 mi West 19.6 mph 31.1 mph N/A   Partly Cloudy
4:51 PM 30.9 °F 17.2 °F 6.1 °F 35% 30.16 in 10.0 mi WNW 25.3 mph 31.1 mph N/A   Partly Cloudy
5:51 PM 28.9 °F 15.8 °F 6.1 °F 38% 30.17 in 10.0 mi WNW 20.7 mph 24.2 mph N/A   Partly Cloudy
6:51 PM 28.0 °F 18.1 °F 6.1 °F 39% 30.18 in 10.0 mi West 11.5 mph - N/A   Partly Cloudy
7:51 PM 27.0 °F 18.0 °F 6.1 °F 41% 30.19 in 10.0 mi West 9.2 mph - N/A   Partly Cloudy
8:51 PM 26.1 °F 17.6 °F 6.1 °F 43% 30.19 in 10.0 mi West 8.1 mph - N/A   Partly Cloudy
9:51 PM 25.0 °F 16.3 °F 6.1 °F 45% 30.19 in 10.0 mi West 8.1 mph - N/A   Partly Cloudy
10:51 PM 24.1 °F 18.2 °F 6.1 °F 46% 30.18 in 10.0 mi WSW 4.6 mph - N/A   Partly Cloudy
11:51 PM 23.0 °F 18.4 °F 7.0 °F 50% 30.16 in 10.0 mi WSW 3.5 mph - N/A   Partly Cloudy